Lake Martin Weather Center

Moon Phase Calendar



Lake Martin Water Level
Online Cameras

 


      

Current Conditions in Dadeville
7/24/2021 6:24:17 AM

73°F
Feels Like 74
Mist
Humidity
100%
Pressure
30.09"
Wind
0
Dew Point
73°F
UV Index
0/10 (Low)
Visibility
3 mi

Hourly Forecast

Date & Time Sat, Jul 24
6:00 AM
Sat, Jul 24
7:00 AM
Sat, Jul 24
8:00 AM
Sat, Jul 24
9:00 AM
Sat, Jul 24
10:00 AM
Sat, Jul 24
11:00 AM
Sat, Jul 24
12:00 PM
Sat, Jul 24
1:00 PM
Sat, Jul 24
2:00 PM
Sat, Jul 24
3:00 PM
Sat, Jul 24
4:00 PM
Sat, Jul 24
5:00 PM
Sat, Jul 24
6:00 PM
Sat, Jul 24
7:00 PM
Sat, Jul 24
8:00 PM
Sat, Jul 24
9:00 PM
Sat, Jul 24
10:00 PM
Sat, Jul 24
11:00 PM
Sun, Jul 25
12:00 AM
Sun, Jul 25
1:00 AM
Sun, Jul 25
2:00 AM
Sun, Jul 25
3:00 AM
Sun, Jul 25
4:00 AM
Sun, Jul 25
5:00 AM
Sun, Jul 25
6:00 AM
Sun, Jul 25
7:00 AM
Sun, Jul 25
8:00 AM
Sun, Jul 25
9:00 AM
Sun, Jul 25
10:00 AM
Sun, Jul 25
11:00 AM
Sun, Jul 25
12:00 PM
Sun, Jul 25
1:00 PM
Sun, Jul 25
2:00 PM
Sun, Jul 25
3:00 PM
Sun, Jul 25
4:00 PM
Sun, Jul 25
5:00 PM
Sun, Jul 25
6:00 PM
Sun, Jul 25
7:00 PM
Sun, Jul 25
8:00 PM
Sun, Jul 25
9:00 PM
Sun, Jul 25
10:00 PM
Sun, Jul 25
11:00 PM
Mon, Jul 26
12:00 AM
Mon, Jul 26
1:00 AM
Mon, Jul 26
2:00 AM
Mon, Jul 26
3:00 AM
Mon, Jul 26
4:00 AM
Mon, Jul 26
5:00 AM
Condition
Clouds

Clouds

Clouds

Clouds

Rain

Clear

Rain

Clear

Clouds

Clouds

Clouds

Clouds

Clouds

Clouds

Clouds

Clouds

Clouds

Clouds

Clouds

Clouds

Clouds

Clouds

Clouds

Clouds

Clouds

Clouds

Clouds

Clouds

Clouds

Clouds

Clouds

Clouds

Clouds

Clouds

Clouds

Clouds

Clouds

Clouds

Clouds

Clouds

Clouds

Clouds

Clouds

Clouds

Clear

Clear

Clear

Clouds
Temperature 73°F73°F75°F79°F83°F88°F89°F91°F91°F90°F89°F85°F83°F82°F80°F80°F80°F80°F79°F79°F78°F76°F75°F74°F74°F74°F77°F80°F83°F86°F90°F93°F95°F95°F94°F91°F87°F83°F79°F78°F78°F77°F77°F76°F75°F75°F74°F74°F
Feels Like 74°F75°F77°F80°F88°F94°F95°F96°F96°F95°F94°F92°F90°F87°F84°F84°F83°F80°F79°F79°F79°F77°F76°F75°F74°F75°F77°F82°F85°F88°F94°F97°F98°F98°F96°F94°F92°F87°F79°F79°F78°F78°F78°F77°F76°F75°F75°F75°F
Cloudiness 90%72%54%36%18%0%3%9%68%73%80%85%88%87%89%94%96%97%97%97%85%74%60%53%50%50%72%72%76%80%73%65%21%34%42%50%56%56%27%22%25%23%19%17%7%10%10%15%
Visibility 6 mi6 mi6 mi6 mi6 mi6 mi6 mi6 mi6 mi6 mi6 mi6 mi6 mi6 mi6 mi6 mi6 mi6 mi6 mi6 mi6 mi6 mi6 mi6 mi6 mi6 mi6 mi6 mi6 mi6 mi6 mi6 mi6 mi6 mi6 mi6 mi6 mi6 mi6 mi6 mi6 mi6 mi6 mi6 mi6 mi6 mi6 mi6 mi
Precipitation 0%0%0%0%28%6%39%24%20%10%6%2%0%0%2%4%3%0%0%0%1%0%0%0%0%0%0%0%0%0%0%0%0%3%4%4%4%4%0%0%0%0%0%0%0%0%0%0%
Humidity 100%97%91%80%70%55%54%50%50%52%56%64%71%74%73%72%72%73%73%72%73%75%77%77%76%76%71%62%57%53%47%42%38%37%40%46%57%69%75%76%75%73%71%71%71%72%73%73%
Dew Point 73°F72°F72°F72°F72°F70°F70°F69°F69°F70°F70°F71°F72°F73°F71°F70°F70°F70°F69°F69°F68°F68°F67°F66°F65°F66°F66°F66°F66°F66°F67°F67°F66°F65°F65°F66°F70°F71°F70°F69°F69°F68°F66°F66°F65°F65°F65°F65°F
Pressure 30.09"30.09"30.09"30.09"30.09"30.06"30.06"30.03"30.03"30"30"30"29.97"29.97"30"30"30"30"30"30"30"30"30"30"30"30.03"30.06"30.06"30.06"30.06"30.03"30"29.97"29.97"29.94"29.94"29.94"29.94"29.94"29.97"30"30"30"30"29.97"29.97"29.97"30"
Wind Speed 3.7 mph3.2 mph3.9 mph4.1 mph4.4 mph4.4 mph4.5 mph3.5 mph2.8 mph2.3 mph1.3 mph1.9 mph3.1 mph3.2 mph3 mph2.8 mph3.5 mph2.9 mph2.6 mph2.8 mph4 mph4.3 mph4.3 mph4.6 mph4.8 mph4.1 mph4 mph3.9 mph3.8 mph3.8 mph3.4 mph2.8 mph2.9 mph2.7 mph1.7 mph0.4 mph3.2 mph5.5 mph5.1 mph3.8 mph4 mph3.5 mph2.7 mph3.2 mph3.5 mph3.3 mph3.1 mph3.1 mph
Wind
Direction
70°
ENE
80°
E
107°
ESE
129°
SE
159°
SSE
164°
SSE
169°
S
172°
S
155°
SSE
127°
SE
147°
SSE
249°
WSW
291°
WNW
326°
NW
356°
N
50°
NE
86°
E
97°
E
101°
E
107°
ESE
112°
ESE
118°
ESE
129°
SE
141°
SE
148°
SSE
150°
SSE
154°
SSE
168°
SSE
170°
S
169°
S
174°
S
172°
S
166°
SSE
165°
SSE
158°
SSE
22°
NNE
345°
NNW
345°
NNW
352°
N
36°
NE
74°
ENE
90°
E
104°
ESE
110°
ESE
121°
ESE
132°
SE
137°
SE
126°
SE

Daily Forecast

Date High Low Precip. Humidity
Today
Jul 24

Rain
91 °F
72 °F
39%
54%
Sunday
Jul 25

Clouds
95 °F
74 °F
4%
47%
Monday
Jul 26

Clear
96 °F
74 °F
0%
38%
Tuesday
Jul 27

Rain
97 °F
76 °F
67%
38%
Wednesday
Jul 28

Rain
93 °F
73 °F
87%
49%
Thursday
Jul 29

Clouds
96 °F
73 °F
61%
44%
Friday
Jul 30

Rain
98 °F
76 °F
83%
40%
Saturday
Jul 31

Rain
93 °F
73 °F
96%
45%
Sunday
Aug 1

Clouds
94 °F
69 °F
0%
28%
Monday
Aug 2

Clouds
96 °F
70 °F
0%
34%
Tuesday
Aug 3

Rain
95 °F
74 °F
47%
55%
Wednesday
Aug 4

Rain
93 °F
72 °F
88%
54%
Thursday
Aug 5

Rain
88 °F
74 °F
99%
68%
Friday
Aug 6

Rain
84 °F
74 °F
96%
80%
Saturday
Aug 7

Rain
96 °F
72 °F
95%
45%
Sunday
Aug 8

Rain
96 °F
73 °F
96%
44%

Temperature 8-14 Day Outlook



Precipitation 8-14 Day Outlook






About Us
Contact Us
Site Map
Search Site
Advertise With Us
   
www.LakeMartin.com
THE LAKE MARTIN WEBSITE

Copyright 2021, Lakes Online
Privacy    |    Legal